[[{"header":{"parameterUnit":"m.s-1","parameterCategory":1,"la1":30.2991,"la2":30.254,"lo1":-89.0895,"lo2":-89.0444,"dy":0.0017,"dx":0.0017,"nx":28,"ny":28,"refTime":"2025-03-13T21:00:00:Z","depth":0,"parameterNumber":2,"parameterNumberName":"U-component_of_WINDS"},"data":[0,0,0,0,0,0,0,0,0,0,0,0,0,0,0,0,0,0,0,0,0,0,0,0,0,0,0,0,0,0,0,0,0,0,0,0,0,0,0,0,0,0,0,0,0,0,0,0,0,0,0,0,0,0,0,0,0,0,-3.1458,-3.1459,0,-3.1587,-3.1588,-3.159,-3.1639,-3.1638,-3.1638,-3.1637,-3.1771,-3.1775,-3.1779,0,0,0,0,0,0,0,0,0,0,0,0,0,-3.1256,-3.126,-3.1458,-3.146,-3.1461,-3.1587,-3.1589,-3.159,-3.1639,-3.1638,-3.1638,-3.1637,-3.177,-3.1775,-3.1779,0,0,0,0,0,0,0,0,0,0,0,0,0,-3.136,-3.1261,-3.1458,-3.15,-3.1506,-3.1586,-3.1589,-3.1591,-3.1639,-3.1638,-3.1638,-3.1637,-3.1768,-3.1774,-3.178,-3.1828,0,0,-3.1798,-3.18,0,0,0,0,0,0,0,0,-3.1354,-3.1368,-3.1493,-3.1498,-3.1504,-3.1596,-3.1566,-3.167,-3.1639,-3.1588,-3.1637,-3.1637,-3.1714,-3.1724,-3.1749,-3.1834,-3.184,-3.1798,-3.1802,-3.1805,-3.1806,0,0,0,0,0,0,0,-3.1347,-3.1362,-3.1509,-3.1494,-3.1501,-3.1514,-3.1528,-3.1586,-3.1653,-3.1593,-3.1596,-3.1611,-3.1716,-3.1744,-3.1753,-3.1842,-3.1798,-3.1803,-3.1807,-3.1809,-3.1974,-3.1975,0,0,0,0,0,0,-3.1332,-3.1356,-3.1505,-3.1513,-3.1426,-3.1518,-3.1534,-3.1567,-3.1652,-3.1665,-3.1611,-3.1613,-3.1734,-3.1746,-3.1758,-3.182,-3.1804,-3.181,-3.1813,-3.1973,-3.1974,-3.1975,0,0,0,0,0,0,-3.1328,-3.1345,-3.15,-3.1436,-3.1456,-3.1522,-3.1559,-3.157,-3.1597,-3.1666,-3.1679,-3.1627,-3.1734,-3.1749,-3.181,-3.1825,-3.1813,-3.1818,-3.1972,-3.1974,-3.1975,-3.1945,0,0,0,0,0,0,-3.1322,-3.1343,-3.1362,-3.1436,-3.1459,-3.1549,-3.156,-3.1573,-3.1607,-3.161,-3.1684,-3.1696,-3.1735,-3.1801,-3.1816,-3.1833,-3.1823,-3.1971,-3.1973,-3.1974,-3.1945,-3.1945,-3.1945,0,0,0,0,0,-3.1314,-3.1348,-3.1362,-3.138,-3.1484,-3.155,-3.1564,-3.1607,-3.1608,-3.1627,-3.1672,-3.1693,-3.1822,-3.1807,-3.1824,-3.1843,-3.1971,-3.1972,-3.1974,-3.1945,-3.1945,-3.1945,0,0,0,0,0,0,-3.1275,-3.1359,-3.1375,-3.1434,-3.1484,-3.1558,-3.1584,-3.1606,-3.1658,-3.1659,-3.1711,-3.1727,-3.1784,-3.182,-3.1803,-3.1895,-3.1898,-3.1903,-3.1869,-3.187,-3.187,-3.186,-3.1828,0,0,0,0,0,-3.1273,-3.1319,-3.139,-3.1435,-3.146,-3.1517,-3.1548,-3.1577,-3.1632,-3.1653,-3.1703,-3.1755,-3.1808,-3.1841,-3.1893,-3.1951,-3.1968,-3.1972,-3.1972,-3.1972,-3.1976,-3.201,-3.2013,-3.1982,-3.1981,-3.1981,0,0,-3.1269,-3.1321,-3.1347,-3.1428,-3.1471,-3.1518,-3.1535,-3.1584,-3.162,-3.1661,-3.1721,-3.1759,-3.1822,-3.1881,-3.191,-3.1913,-3.1989,-3.1975,-3.1974,-3.1978,-3.2012,-3.2015,-3.2017,-3.1983,-3.1983,-3.1982,0,0,-3.1287,-3.133,-3.1373,-3.1415,-3.1479,-3.1517,-3.1527,-3.1598,-3.1625,-3.1686,-3.1718,-3.1762,-3.1851,-3.1894,-3.1928,-3.1963,-3.1985,-3.1979,-3.1979,-3.2011,-3.2013,-3.2016,-3.2028,-3.2032,-3.1982,-3.1982,-3.1982,0,-3.1274,-3.1346,-3.1392,-3.1439,-3.1474,-3.1514,-3.1557,-3.1597,-3.1674,-3.1698,-3.1701,-3.1813,-3.1858,-3.1928,-3.1937,-3.1963,-3.1977,-3.197,-3.2009,-3.2012,-3.2015,-3.2028,-3.2032,-3.1981,-3.1981,-3.1981,-3.1981,0,-3.1328,-3.1377,-3.1404,-3.1477,-3.1516,-3.1561,-3.1614,-3.1648,-3.1674,-3.1712,-3.1775,-3.183,-3.1894,-3.1913,-3.1939,-3.1987,-3.1987,-3.1999,-3.2002,-3.2016,-3.2029,-3.2034,-3.1979,-3.198,-3.198,-3.198,0,0,-3.1323,-3.1421,-3.143,-3.1464,-3.1539,-3.1578,-3.1626,-3.1688,-3.1716,-3.1769,-3.181,-3.1885,-3.1896,-3.1934,-3.1966,-3.1994,-3.2018,-3.2003,-3.2005,-3.2003,-3.2075,-3.2065,-3.207,-3.2034,-3.2035,-3.2036,-3.207,0,-3.135,-3.1435,-3.1478,-3.1546,-3.1592,-3.1631,-3.1673,-3.1723,-3.176,-3.1806,-3.1848,-3.19,-3.1911,-3.1934,-3.1964,-3.2009,-3.2033,-3.2007,-3.2073,-3.2075,-3.2055,-3.2077,-3.2067,-3.2096,-3.2075,-3.2076,-3.2077,0,-3.1393,-3.1444,-3.1516,-3.1585,-3.1606,-3.1643,-3.1703,-3.1746,-3.1805,-3.183,-3.1873,-3.1904,-3.1956,-3.1957,-3.203,-3.2011,-3.2041,-3.2068,-3.207,-3.2077,-3.2076,-3.2084,-3.2107,-3.2111,-3.2085,-3.2084,-3.2084,0,-3.1381,-3.1469,-3.1524,-3.1552,-3.1634,-3.1659,-3.1694,-3.1752,-3.1786,-3.184,-3.1863,-3.1922,-3.1955,-3.2,-3.2047,-3.2043,-3.2116,-3.212,-3.2139,-3.2137,-3.2152,-3.215,-3.2178,-3.2172,-3.2171,-3.2171,-3.2171,0,-3.1407,-3.1449,-3.152,-3.1553,-3.1602,-3.1652,-3.1699,-3.1738,-3.1789,-3.1831,-3.1869,-3.1908,-3.1967,-3.2014,-3.2051,-3.2106,-3.2121,-3.2143,-3.2152,-3.214,-3.2137,-3.2159,-3.2158,-3.2173,-3.2172,-3.2172,-3.2172,0,-3.1402,-3.1451,-3.1513,-3.1586,-3.1605,-3.1638,-3.17,-3.1735,-3.1774,-3.1827,-3.1843,-3.1905,-3.1962,-3.2013,-3.2089,-3.2114,-3.217,-3.2182,-3.215,-3.2155,-3.2171,-3.2168,-3.2214,-3.2223,-3.221,-3.221,-3.221,0,-3.1415,-3.1448,-3.1524,-3.1555,-3.1589,-3.1638,-3.1674,-3.1724,-3.176,-3.1829,-3.1855,-3.1915,-3.1965,-3.2055,-3.2108,-3.2166,-3.218,-3.2192,-3.2189,-3.2175,-3.2179,-3.2177,-3.218,-3.2191,-3.2191,-3.2191,-3.2191,0,-3.1432,-3.1455,-3.1504,-3.1562,-3.1603,-3.1651,-3.1701,-3.1724,-3.1784,-3.1823,-3.1881,-3.192,-3.1997,-3.2056,-3.2121,-3.2159,-3.2185,-3.2191,-3.2199,-3.2185,-3.2165,-3.2176,-3.2149,-3.219,-3.219,-3.219,-3.219,-3.219,-3.1437,-3.1468,-3.1526,-3.158,-3.1623,-3.1668,-3.1704,-3.1748,-3.1797,-3.1863,-3.1891,-3.195,-3.2009,-3.2098,-3.2136,-3.2184,-3.2189,-3.2199,-3.2202,-3.2204,-3.2201,-3.2158,-3.2196,-3.2196,-3.2196,-3.2196,-3.2196,0,-3.1456,-3.1495,-3.1544,-3.1612,-3.1654,-3.1675,-3.1731,-3.1765,-3.1817,-3.1869,-3.1917,-3.1985,-3.2042,-3.21,-3.2161,-3.2188,-3.2202,-3.2202,-3.2201,-3.2209,-3.2193,-3.2181,-3.219,-3.219,-3.219,-3.219,-3.219,-3.219,-3.147,-3.1525,-3.1554,-3.163,-3.167,-3.1728,-3.1758,-3.1801,-3.1842,-3.1915,-3.1963,-3.2,-3.2055,-3.212,-3.2174,-3.219,-3.221,-3.2207,-3.2226,-3.221,-3.221,-3.221,-3.2198,-3.2211,-3.2211,-3.2238,-3.2238,-3.2238]},{"header":{"parameterUnit":"m.s-1","parameterCategory":1,"la1":30.2991,"la2":30.254,"lo1":-89.0895,"lo2":-89.0444,"dy":0.0017,"dx":0.0017,"nx":28,"ny":28,"refTime":"2025-03-13T21:00:00:Z","depth":0,"parameterNumber":3,"parameterNumberName":"V-component_of_WINDS"},"data":[0,0,0,0,0,0,0,0,0,0,0,0,0,0,0,0,0,0,0,0,0,0,0,0,0,0,0,0,0,0,0,0,0,0,0,0,0,0,0,0,0,0,0,0,0,0,0,0,0,0,0,0,0,0,0,0,0,0,7.9877,7.9878,0,7.9935,7.9936,7.9937,7.9876,7.9873,7.9871,7.9869,7.9923,7.9927,7.993,0,0,0,0,0,0,0,0,0,0,0,0,0,7.9709,7.9713,7.9877,7.9878,7.9878,7.9935,7.9936,7.9937,7.9876,7.9873,7.987,7.9868,7.9922,7.9926,7.9931,0,0,0,0,0,0,0,0,0,0,0,0,0,7.9776,7.9714,7.9877,7.9855,7.9854,7.9935,7.9936,7.9937,7.9877,7.9873,7.987,7.9866,7.9921,7.9926,7.9931,8.0035,0,0,7.9948,7.995,0,0,0,0,0,0,0,0,7.9772,7.9782,7.9858,7.9857,7.9855,7.9895,7.9897,7.997,7.9878,7.9868,7.9869,7.9865,7.9916,7.9922,7.994,8.0038,8.004,7.9948,7.9952,7.9954,7.9956,0,0,0,0,0,0,0,7.9768,7.978,7.99,7.9859,7.9857,7.9841,7.9847,7.991,7.9911,7.9868,7.9864,7.9872,7.9915,7.9935,7.9941,8.0041,7.9948,7.9953,7.9956,7.9959,8.0229,8.0233,0,0,0,0,0,0,7.9766,7.9776,7.9898,7.9901,7.9805,7.9847,7.9853,7.9886,7.991,7.991,7.9875,7.9869,7.9928,7.9935,7.9943,8.0068,7.9954,7.9959,7.9962,8.0225,8.023,8.0234,0,0,0,0,0,0,7.9763,7.9778,7.9896,7.9838,7.9852,7.9854,7.989,7.9889,7.9909,7.9915,7.9914,7.9896,7.9925,7.9935,8.0014,8.0069,7.9962,7.9967,8.0221,8.0227,8.0232,8.0319,0,0,0,0,0,0,7.9758,7.9777,7.9817,7.9839,7.9855,7.9967,7.9894,7.9892,7.9919,7.9912,7.9935,7.9935,7.9923,8.0006,8.0019,8.0075,7.9971,8.0216,8.0223,8.023,8.0311,8.0327,8.0341,0,0,0,0,0,7.9753,7.9837,7.9819,7.9834,7.9905,7.997,7.9979,7.9965,7.9924,7.9964,7.9968,7.9934,8.0061,8.0014,8.0029,8.0087,8.0212,8.0221,8.023,8.0305,8.0324,8.034,0,0,0,0,0,0,7.9819,7.984,7.982,7.9915,7.9942,7.996,8.001,7.9986,8.0023,8.0015,7.9994,8.0,8.0084,8.0093,8.0041,8.019,8.013,8.0142,8.0182,8.02,8.0215,8.0211,7.9975,0,0,0,0,0,7.9845,7.9897,7.9912,7.9994,8.0009,8.0008,8.0035,8.0022,8.0048,8.0059,8.0069,8.0094,8.014,8.017,8.0212,8.0312,8.0317,8.0359,8.0374,8.0386,8.0397,8.0453,8.0473,8.0263,8.0263,8.0263,0,0,7.9898,7.9916,7.995,8.0008,8.0027,8.0081,8.0017,8.0076,8.0116,8.0067,8.0143,8.0152,8.0178,8.0269,8.0309,8.0279,8.0456,8.0397,8.0407,8.0411,8.0464,8.0484,8.0502,8.0269,8.0268,8.0267,0,0,8.0024,8.0042,8.0115,8.0136,8.0167,8.0166,8.0184,8.0206,8.0211,8.0288,8.0253,8.0299,8.0377,8.0399,8.042,8.0558,8.0529,8.0572,8.0649,8.0704,8.0721,8.0735,8.0786,8.0805,8.0582,8.0583,8.0583,0,8.0086,8.0168,8.0154,8.0217,8.0244,8.0205,8.0278,8.0299,8.0341,8.036,8.0326,8.0426,8.0441,8.0538,8.0572,8.0589,8.0609,8.0569,8.072,8.0734,8.0748,8.0796,8.0815,8.0588,8.0587,8.0587,8.0586,0,8.0244,8.0302,8.0356,8.0402,8.0434,8.0502,8.0497,8.0532,8.0517,8.052,8.0599,8.0616,8.0662,8.0684,8.0668,8.0779,8.076,8.0723,8.0662,8.0773,8.0819,8.0837,8.0595,8.0594,8.0592,8.0591,0,0,8.0413,8.0452,8.0472,8.0494,8.0527,8.057,8.0636,8.0684,8.0715,8.0746,8.0801,8.087,8.0838,8.0862,8.0848,8.0896,8.1007,8.0854,8.0854,8.0884,8.1133,8.1162,8.1183,8.0988,8.0991,8.0994,8.1131,0,8.0541,8.0659,8.0649,8.076,8.0814,8.0778,8.0836,8.0862,8.0866,8.0912,8.0915,8.0966,8.0918,8.0933,8.0978,8.0984,8.1057,8.0974,8.1039,8.1042,8.1036,8.1207,8.1237,8.1365,8.1148,8.1151,8.1154,0,8.0707,8.0748,8.0865,8.0893,8.0915,8.0967,8.1012,8.1055,8.1084,8.1084,8.1113,8.1092,8.1159,8.1096,8.1187,8.1131,8.1157,8.1164,8.1169,8.1175,8.1106,8.122,8.1406,8.1426,8.1181,8.1179,8.1177,0,8.0821,8.0905,8.0987,8.1006,8.1039,8.1077,8.1092,8.1118,8.1149,8.1187,8.1206,8.1251,8.1275,8.131,8.1302,8.1256,8.1396,8.1332,8.1399,8.1399,8.1431,8.1429,8.1626,8.1444,8.1444,8.1444,8.1443,0,8.0967,8.1041,8.1039,8.109,8.1171,8.1159,8.124,8.125,8.1274,8.1325,8.1295,8.1344,8.133,8.1377,8.1371,8.1449,8.146,8.1462,8.146,8.1466,8.1466,8.1484,8.1475,8.1449,8.1448,8.1447,8.1446,0,8.1109,8.1111,8.1198,8.1224,8.1232,8.1292,8.1313,8.136,8.1363,8.1429,8.1443,8.1447,8.1503,8.1498,8.1558,8.1554,8.1652,8.1638,8.1643,8.1641,8.1709,8.1704,8.1925,8.1954,8.1752,8.1754,8.1756,0,8.1203,8.126,8.1293,8.1327,8.1346,8.14,8.1432,8.1422,8.1456,8.1495,8.1538,8.1591,8.1633,8.1722,8.173,8.1777,8.1765,8.184,8.1772,8.1777,8.1769,8.1767,8.1773,8.1853,8.1856,8.1857,8.1859,0,8.1371,8.137,8.1418,8.1468,8.1508,8.1546,8.158,8.1609,8.1602,8.1642,8.17,8.1733,8.1797,8.185,8.1896,8.191,8.1884,8.188,8.1899,8.1906,8.1908,8.1911,8.1682,8.1875,8.1874,8.1872,8.1872,8.1871,8.1493,8.1543,8.1575,8.1631,8.1657,8.169,8.1737,8.1748,8.1796,8.185,8.184,8.1905,8.1934,8.1993,8.2012,8.2062,8.2035,8.2061,8.2068,8.2075,8.2084,8.1899,8.207,8.2069,8.2069,8.2068,8.2068,0,8.1661,8.1681,8.1732,8.1784,8.1828,8.1802,8.1839,8.1877,8.1936,8.1966,8.201,8.2077,8.2129,8.2142,8.2192,8.223,8.2219,8.2243,8.2241,8.2246,8.2104,8.2084,8.2251,8.2251,8.2251,8.2251,8.2251,8.2251,8.1754,8.1838,8.1841,8.1938,8.1956,8.2023,8.2047,8.2078,8.2102,8.218,8.2224,8.2233,8.2256,8.2308,8.2355,8.2357,8.2378,8.2408,8.2405,8.2273,8.2255,8.2238,8.2219,8.2412,8.2412,8.2543,8.2544,8.2545]}]]